Flag for Germany Weather past 2 weeks in Ennepetal, North Rhine-Westphalia, Germany

Now
59 °F

Scattered clouds.


Feels Like: 56 °F
Forecast: 48 / 54 °F
Wind: 15 mph from Southwest

Location: Dortmund / Wickede

Current Time: Sep 4, 2015 at 12:45:57 PM

Latest Report: Sep 4, 2015 at 12:20 PM


Visibility: N/A

Pressure: 29.95 "Hg

Humidity: 63%

Dew point: 46 °F

Location of EnnepetalLocation

Historic Weather in Ennepetal — Graph

°F

Ennepetal temperature yesterday

Maximum temperature yesterday: 63 °F (at 1:50 PM)
Minimum temperature yesterday: 52 °F (at 10:50 PM)
Average temperature yesterday: 58 °F

Past Weeks' High & Low Weather Summary

 TemperatureHumidityPressure
High88 °F (Aug 30, 2:20 PM)94% (Aug 24, 5:20 AM)30.24 "Hg (Aug 24, 5:20 AM)
Low48 °F (Sep 2, 5:50 AM)26% (Aug 22, 4:50 PM)29.56 "Hg (Aug 24, 2:50 PM)
Average66 °F63%29.95 "Hg
* Reported Aug 20 11:20 AM — Sep 4 11:20 AM, Ennepetal, Weather by CustomWeather, © 2015

Note: Actual official high and low records may vary slightly from our data, if they occured in-between our weather recording intervals... More about our weather records

Advertising

Ennepetal weather history for previous 24 hours

 ConditionsComfort  
Time TempWeatherWind HumidityBarometerVisibility
11:20 AM
Fri, Sep 4
57 °FScattered clouds.14 mph63%29.95 "HgN/A
10:50 AM57 °FScattered clouds.14 mph63%29.95 "HgN/A
10:20 AM55 °FScattered clouds.13 mph67%29.95 "HgN/A
9:50 AM55 °FScattered clouds.14 mph72%29.95 "HgN/A
9:20 AM54 °FPassing clouds.13 mph77%29.95 "HgN/A
8:50 AM54 °FSunny.12 mph77%29.95 "Hg10 mi
8:20 AM52 °FSunny.12 mph82%29.95 "Hg10 mi
7:50 AM52 °FSunny.10 mph82%29.95 "Hg10 mi
7:20 AM52 °FPassing clouds.13 mph82%29.95 "HgN/A
6:50 AM52 °FClear.9 mph82%29.92 "Hg10 mi
6:20 AM52 °FClear.10 mph82%29.92 "Hg10 mi
5:50 AM52 °FClear.9 mph82%29.92 "Hg10 mi
5:20 AM52 °FPassing clouds.9 mph82%29.92 "HgN/A
10:50 PM
Thu, Sep 3
52 °FClear.7 mph77%29.95 "Hg10 mi
10:20 PM54 °FClear.7 mph77%29.95 "Hg10 mi
9:50 PM55 °FPassing clouds.7 mph72%29.95 "HgN/A
9:20 PM55 °FClear.7 mph72%29.95 "Hg10 mi
8:50 PM55 °FPassing clouds.9 mph67%29.95 "HgN/A
8:20 PM55 °FPassing clouds.5 mph72%29.95 "HgN/A
7:50 PM57 °FPassing clouds.5 mph67%29.92 "HgN/A
7:20 PM59 °FPassing clouds.8 mph63%29.92 "HgN/A
6:50 PM61 °FPassing clouds.10 mph59%29.92 "HgN/A
6:20 PM61 °FPassing clouds.8 mph59%29.92 "HgN/A
5:20 PM63 °FPassing clouds.8 mph56%29.92 "HgN/A
4:50 PM63 °FClear.9 mph56%29.92 "HgN/A
4:20 PM63 °FSunny.8 mph56%29.92 "Hg10 mi
3:50 PM63 °FPassing clouds.8 mph56%29.92 "HgN/A
3:20 PM61 °FPassing clouds.9 mph55%29.92 "HgN/A
2:50 PM61 °FPassing clouds.8 mph63%29.92 "HgN/A
2:20 PM61 °FPassing clouds.7 mph59%29.92 "HgN/A
1:50 PM63 °FPassing clouds.6 mph56%29.92 "HgN/A
1:20 PM59 °FPassing clouds.9 mph63%29.92 "HgN/A
12:50 PM61 °FPassing clouds.5 mph63%29.95 "HgN/A
12:20 PM59 °FPartly sunny.6 mph63%29.95 "HgN/A
Weather by CustomWeather, © 2015

See weather overviewHow to use our weather pages